Location: Grossmotten
(48.5500°N, 15.3833°E)
Time: 10:40:43
(UTC+00:00)

ASTEX 1 - Pass Details

Date: 15 November 2019
Orbit: 721 x 743 km, 92.7° (Epoch: 11 December)

Event Time Altitude Azimuth Distance (km) Brightness Sun altitude
Rises 03:06:39 0° 158° (SSE) 3,149 6.9 -29.5°
Reaches altitude 10° 03:08:58 10° 153° (SSE) 2,235 6.1 -29.1°
Maximum altitude 03:13:45 53° 78° (ENE) 913 4.1 -28.3°
Drops below altitude 10° 03:18:37 10° 3° (N) 2,263 6.0 -27.5°
Sets 03:20:58 0° 359° (N) 3,193 6.7 -27.2°
